Wind_Speed
30 32 34 35 35 34 31 29 27 25 23 21 20 19 17 16 16 15 12 12 12 10 12 15 13 16 27 32 32 32 31 35 36 34 26 24 26 26 25 25 20 20 16 23 18
30 32 34 35 34 32 30 28 26 23 21 20 19 17 18 18 18 16 13 10 9 10 13 13 13 12 21 26 21 28 33 34 27 30 29 24 23 26 27 28 26 26 25 32 19
30 31 33 34 33 31 29 27 25 22 21 20 20 18 18 18 19 20 14 14 11 8 10 15 16 12 15 19 23 24 34 28 28 23 22 24 23 22 25 26 29 27 24 31 23
30 31 33 34 33 30 30 27 25 23 22 22 21 22 21 20 8 13 20 20 15 10 7 8 11 13 12 21 23 26 26 20 28 21 22 24 20 27 25 19 20 32 29 34 27
31 33 33 35 33 31 29 28 26 24 23 22 22 19 16 14 18 20 20 18 15 12 10 8 6 9 14 16 21 27 23 23 19 23 21 20 27 22 25 28 22 33 35 36 28
31 32 33 35 34 32 29 28 27 26 24 23 19 14 10 9 10 11 12 12 12 13 15 14 12 12 9 16 21 15 26 23 25 25 22 23 25 27 29 32 31 31 25 27 29
31 31 33 35 35 34 30 29 29 27 22 19 14 13 12 12 10 9 9 8 9 11 13 15 15 10 11 8 16 19 17 23 26 25 23 19 28 40 30 22 31 38 30 22 23
31 31 33 34 36 35 33 29 29 25 18 12 13 10 13 14 11 10 10 11 10 9 14 17 13 8 7 11 6 15 18 23 25 28 27 25 33 27 31 29 31 26 26 29 28
32 32 33 33 36 36 35 31 29 20 18 12 12 10 17 14 14 14 13 11 10 6 13 15 10 6 7 7 10 12 17 23 22 24 29 29 18 29 24 31 30 27 27 29 34
33 32 33 33 35 36 35 31 27 16 18 8 12 9 18 12 14 14 13 11 10 6 7 7 6 7 9 11 12 11 15 11 21 23 26 29 32 14 18 28 34 25 27 23 34
34 32 33 31 34 35 34 33 32 20 16 6 12 19 15 16 12 13 11 10 6 4 6 7 9 11 11 12 11 7 8 10 11 13 20 27 29 28 25 15 25 29 26 24 27
36 33 32 29 32 33 32 29 27 18 12 4 14 22 16 20 14 12 9 2 3 5 7 8 11 11 12 11 11 11 11 12 12 16 13 16 26 28 28 29 26 25 26 28 23
38 34 31 27 31 31 30 28 25 17 5 5 16 19 21 25 10 9 10 5 7 9 9 12 7 5 11 11 11 12 12 10 10 7 16 12 21 29 32 27 28 27 25 25 29
38 34 32 28 32 31 31 29 24 18 2 10 11 10 19 24 8 16 9 8 9 10 11 13 12 12 8 11 11 13 11 11 11 10 17 16 10 32 31 33 31 32 30 28 29
38 34 31 28 30 29 29 28 20 11 3 13 12 22 24 16 15 10 12 9 11 14 10 8 6 6 11 10 10 9 7 8 10 12 13 15 10 19 31 33 35 36 32 31 32
36 34 30 26 28 28 28 26 12 6 4 10 14 22 23 18 11 8 7 10 11 13 19 19 11 12 9 10 9 6 7 7 8 11 16 21 20 18 27 40 39 41 36 35 36
36 34 31 24 27 27 27 22 5 6 16 10 23 22 21 16 14 9 13 11 5 5 13 19 21 17 14 11 8 11 11 8 9 10 13 23 18 23 25 35 42 45 40 37 42
37 34 31 22 26 26 25 13 4 11 10 20 20 18 13 16 14 13 13 10 12 10 8 8 10 20 16 20 13 17 17 9 8 12 15 12 17 20 23 21 36 38 39 35 36
36 33 31 25 24 24 20 8 8 14 16 19 18 10 15 18 16 17 11 12 8 4 7 5 5 8 9 13 20 16 25 13 11 18 12 23 22 18 24 24 33 39 40 37 36
36 34 32 27 24 24 14 10 10 13 17 14 11 12 16 22 22 20 14 7 5 5 9 5 6 8 7 13 17 14 17 16 13 8 14 16 27 21 27 24 33 41 41 41 43
38 34 33 30 24 18 13 12 16 15 17 10 14 18 17 21 27 25 9 7 7 7 7 7 8 5 8 17 20 22 18 22 18 21 11 16 23 28 21 27 37 42 42 45 48
39 25 32 30 14 24 16 15 18 18 15 12 14 14 18 26 29 27 18 13 10 11 8 13 8 14 16 14 18 25 23 27 17 20 27 24 16 25 23 23 40 41 42 44 49
41 35 35 31 23 24 18 16 17 19 17 15 13 14 21 27 25 22 23 18 19 8 12 14 10 11 7 17 24 26 31 27 29 19 20 18 14 14 31 21 40 42 46 45 56
40 33 35 35 31 26 22 15 15 19 16 17 22 17 21 31 26 20 26 18 15 18 16 16 18 17 15 13 15 32 32 32 30 31 27 30 2 16 21 24 40 43 49 52 58
38 37 35 29 23 24 21 19 16 19 22 18 16 18 27 32 33 17 39 32 25 17 17 18 18 19 24 23 16 16 29 33 34 37 27 27 10 4 7 27 39 48 53 60 56
36 36 37 34 30 22 20 15 19 26 19 16 16 26 26 25 27 40 27 22 8 4 14 20 17 14 21 16 13 14 23 28 31 31 38 31 23 14 10 25 38 46 55 56 54
37 37 37 36 32 21 19 22 25 22 18 17 21 29 24 29 27 19 11 10 6 6 12 13 11 11 9 5 5 8 24 27 30 32 34 36 22 13 15 23 37 41 49 55 54
Wind_Direction
0 358 355 353 350 350 349 348 347 345 344 340 339 337 332 330 327 329 319 308 305 299 286 280 275 253 227 216 214 206 220 227 225 224 227 226 221 220 219 223 219 223 218 231 236
2 359 357 354 354 352 349 348 346 342 341 338 332 330 324 320 315 308 302 307 309 288 273 272 269 258 239 220 221 212 223 226 225 227 225 228 225 220 223 222 221 211 235 234 225
2 359 357 357 356 352 348 345 342 335 330 328 325 321 312 307 303 295 276 297 294 287 263 254 256 246 223 224 221 228 224 230 227 214 218 218 225 204 215 220 221 215 231 234 221
359 358 358 358 356 353 347 344 341 337 329 323 317 309 300 292 273 283 286 293 287 275 270 259 253 236 221 226 224 234 229 219 223 226 221 219 216 220 213 205 207 209 206 229 217
358 357 357 357 357 353 348 344 341 337 333 330 327 318 308 294 285 285 282 283 276 258 247 237 237 223 222 231 224 231 221 231 217 217 225 220 218 220 218 199 209 211 215 228 222
359 356 355 356 356 355 352 346 344 341 340 341 337 340 347 339 327 315 303 296 282 264 250 251 239 227 237 229 220 236 230 235 223 230 232 231 226 220 216 205 211 210 218 226 226
359 356 353 355 355 356 355 348 344 345 347 353 2 17 33 17 4 349 341 328 299 265 251 251 249 227 225 241 231 223 225 230 225 224 224 232 232 220 207 206 207 209 216 210 212
360 356 354 354 354 355 355 349 346 347 350 351 2 7 6 354 348 337 335 322 307 258 240 245 242 223 206 230 246 224 231 230 232 225 226 223 235 229 220 222 213 211 216 217 203
359 356 354 353 354 354 353 351 347 348 350 348 8 11 5 350 345 336 337 333 327 269 228 232 235 215 230 214 230 218 226 226 225 225 219 222 239 224 218 221 223 223 218 221 209
359 356 354 353 354 353 351 349 352 350 356 355 13 15 348 347 331 324 323 323 333 292 234 227 229 228 220 213 239 219 225 220 222 220 221 224 231 209 220 225 222 221 215 214 215
359 356 354 352 353 352 349 352 357 358 353 6 358 354 346 342 327 321 320 327 337 200 210 229 225 229 232 227 237 227 229 228 215 209 221 229 229 230 219 230 214 216 211 209 218
360 356 354 351 352 352 349 354 352 347 334 338 354 351 354 348 353 315 311 286 246 246 239 256 249 235 238 233 229 231 239 240 242 226 240 232 229 226 222 225 216 214 211 209 205
1 356 353 350 352 351 351 351 348 340 355 336 347 354 351 357 326 342 324 259 244 248 239 251 268 229 230 234 233 237 238 239 240 211 237 247 242 227 224 222 219 215 211 207 202
1 357 351 350 352 353 355 351 348 343 85 351 339 334 345 350 306 313 280 259 251 253 252 259 243 242 234 224 234 251 246 242 244 244 241 213 250 223 216 217 214 211 208 200 194
1 359 352 351 351 352 352 352 351 354 299 331 343 344 347 338 317 298 307 261 249 248 232 250 227 223 220 235 237 243 251 237 237 241 246 219 241 233 207 207 207 206 203 197 194
1 0 355 352 350 350 354 357 9 12 13 336 339 332 332 334 316 305 306 301 256 254 238 242 250 228 234 241 238 219 231 243 232 230 237 229 221 227 198 201 200 202 200 197 195
1 1 357 355 350 350 355 3 10 32 330 325 328 334 339 346 319 300 302 282 258 234 236 242 239 239 237 237 241 198 200 197 209 206 239 209 221 233 208 204 200 197 196 196 198
2 3 0 1 352 352 355 10 15 339 331 324 329 329 342 339 342 314 304 294 296 247 255 248 243 226 227 225 221 214 205 239 199 210 226 205 214 224 217 206 201 200 195 192 188
2 4 4 4 356 357 6 25 344 333 330 331 338 327 340 337 331 325 293 273 263 283 208 247 253 200 210 220 205 219 219 222 291 271 278 194 231 237 218 210 196 195 192 190 181
2 4 5 5 2 359 2 9 346 334 336 339 322 316 323 333 334 331 293 251 283 299 216 256 259 221 214 203 214 225 211 208 223 259 221 215 224 223 210 205 192 190 189 187 183
2 6 2 5 4 7 1 352 353 349 343 337 323 307 314 324 323 325 272 252 274 252 228 220 236 208 213 212 206 202 212 215 236 240 260 228 221 216 209 202 187 186 184 189 190
3 11 2 3 12 360 354 344 346 356 347 319 326 316 313 320 307 315 301 239 214 210 222 219 255 253 249 232 231 220 220 211 220 210 232 267 269 211 196 193 183 183 181 190 191
1 5 6 359 357 359 357 350 347 351 350 339 319 319 321 309 313 298 300 303 241 242 212 213 238 257 238 223 222 222 212 215 221 241 238 237 229 203 193 191 182 182 181 179 175
359 5 360 356 356 352 351 349 344 346 352 341 332 325 321 315 316 289 288 297 299 238 238 225 238 237 265 268 216 215 209 212 219 220 223 229 14 186 193 190 179 184 181 175 176
359 356 1 351 355 345 344 351 342 336 351 342 342 329 328 320 326 314 320 313 312 282 221 243 254 250 267 275 268 212 208 208 212 216 221 232 231 293 195 185 179 186 182 181 177
358 356 354 354 351 351 340 340 338 339 340 348 327 334 339 327 323 312 318 323 324 239 214 245 268 277 280 279 271 217 203 200 208 213 227 241 265 303 195 173 188 189 185 177 175
355 354 357 357 351 351 337 340 340 340 1 353 342 337 338 328 325 335 330 333 217 172 208 241 265 283 276 259 241 242 213 206 208 216 222 233 241 270 170 180 193 188 182 173 173
Height
3139 3134 3129 3125 3120 3114 3110 3106 3102 3099 3096 3093 3091 3089 3087 3086 3084 3084 3083 3082 3081 3080 3080 3081 3083 3085 3088 3092 3094 3099 3104 3100 3104 3111 3117 3120 3120 3125 3131 3134 3138 3140 3143 3140 3144
3139 3134 3129 3124 3118 3113 3108 3104 3101 3098 3095 3092 3090 3087 3085 3084 3082 3080 3080 3078 3077 3077 3077 3079 3080 3082 3085 3088 3091 3093 3095 3097 3105 3109 3111 3115 3116 3121 3125 3127 3132 3136 3136 3136 3141
3138 3133 3128 3123 3117 3111 3106 3103 3099 3096 3093 3090 3088 3085 3082 3080 3079 3076 3074 3074 3074 3074 3074 3075 3077 3079 3082 3085 3088 3089 3089 3097 3100 3101 3106 3110 3112 3117 3119 3124 3129 3134 3137 3133 3138
3137 3132 3127 3121 3115 3110 3105 3100 3096 3092 3089 3086 3083 3080 3078 3076 3080 3072 3070 3071 3071 3071 3071 3071 3073 3076 3079 3081 3083 3085 3087 3090 3094 3097 3099 3102 3108 3110 3112 3123 3126 3123 3129 3127 3134
3137 3131 3125 3119 3114 3108 3103 3097 3093 3089 3085 3081 3077 3074 3072 3071 3071 3068 3067 3067 3067 3068 3069 3070 3072 3074 3076 3078 3081 3079 3084 3085 3087 3091 3092 3097 3098 3104 3108 3114 3117 3119 3122 3123 3129
3136 3130 3124 3118 3112 3106 3101 3095 3090 3086 3082 3078 3073 3070 3069 3070 3067 3065 3065 3064 3065 3066 3066 3067 3068 3070 3071 3073 3075 3077 3079 3081 3083 3086 3088 3090 3094 3099 3101 3108 3111 3114 3118 3121 3125
3135 3129 3123 3116 3110 3104 3099 3093 3088 3084 3079 3076 3073 3070 3069 3070 3067 3065 3064 3063 3062 3062 3063 3062 3063 3067 3068 3071 3070 3072 3073 3075 3076 3080 3083 3086 3087 3085 3098 3106 3106 3109 3113 3116 3121
3134 3128 3121 3115 3108 3102 3097 3091 3085 3081 3078 3076 3074 3071 3070 3069 3066 3065 3063 3062 3060 3059 3059 3059 3060 3063 3065 3067 3067 3068 3070 3069 3071 3075 3078 3082 3076 3087 3092 3097 3101 3106 3110 3113 3116
3133 3127 3120 3114 3107 3100 3094 3089 3083 3079 3077 3075 3074 3071 3070 3068 3065 3063 3062 3061 3058 3057 3057 3057 3059 3063 3064 3066 3067 3065 3062 3064 3067 3069 3073 3074 3077 3081 3088 3093 3096 3102 3105 3110 3113
3131 3125 3119 3112 3106 3099 3093 3088 3083 3078 3076 3074 3074 3074 3070 3068 3064 3062 3060 3059 3058 3056 3058 3059 3061 3062 3062 3063 3059 3058 3060 3060 3062 3065 3066 3069 3073 3077 3080 3083 3089 3095 3101 3105 3107
3130 3124 3117 3111 3104 3098 3091 3084 3081 3077 3075 3075 3074 3072 3069 3066 3062 3059 3058 3057 3057 3058 3060 3060 3061 3059 3059 3059 3059 3059 3059 3058 3059 3061 3063 3064 3068 3072 3076 3080 3085 3091 3096 3100 3105
3129 3122 3115 3109 3103 3097 3091 3085 3081 3079 3074 3073 3072 3069 3067 3063 3061 3058 3057 3059 3058 3059 3059 3060 3057 3057 3057 3057 3057 3058 3057 3057 3058 3058 3060 3060 3061 3066 3070 3074 3080 3086 3091 3095 3102
3127 3120 3114 3108 3102 3096 3090 3085 3079 3075 3073 3072 3069 3067 3065 3061 3059 3057 3056 3056 3057 3057 3055 3056 3054 3052 3053 3053 3054 3054 3055 3055 3056 3055 3056 3057 3055 3057 3060 3066 3072 3078 3085 3091 3097
3126 3119 3112 3106 3102 3094 3089 3082 3077 3073 3073 3076 3071 3067 3063 3058 3058 3054 3052 3055 3055 3055 3054 3053 3052 3051 3051 3051 3052 3051 3052 3052 3053 3054 3050 3051 3043 3044 3053 3058 3064 3071 3076 3086 3094
3125 3118 3111 3102 3100 3094 3090 3081 3076 3074 3072 3076 3070 3065 3063 3062 3057 3052 3050 3050 3050 3050 3052 3050 3048 3048 3049 3050 3050 3050 3049 3050 3050 3051 3050 3048 3051 3037 3044 3052 3059 3065 3072 3082 3090
3123 3117 3110 3104 3099 3094 3087 3081 3077 3077 3075 3075 3072 3067 3063 3059 3055 3052 3049 3046 3045 3044 3044 3045 3046 3047 3048 3048 3048 3048 3049 3049 3049 3049 3045 3043 3045 3032 3037 3043 3051 3061 3068 3077 3085
3121 3115 3108 3102 3098 3091 3086 3081 3081 3080 3080 3076 3068 3065 3060 3057 3053 3050 3048 3044 3042 3041 3039 3041 3041 3043 3044 3046 3047 3048 3049 3043 3043 3040 3032 3034 3041 3033 3034 3040 3048 3056 3064 3073 3082
3120 3113 3107 3102 3096 3090 3085 3084 3082 3081 3076 3072 3068 3063 3059 3054 3052 3048 3045 3042 3038 3036 3037 3035 3036 3037 3038 3041 3044 3045 3046 3035 3039 3031 3026 3032 3030 3027 3032 3040 3047 3056 3064 3071 3080
3120 3112 3106 3101 3095 3090 3086 3084 3083 3078 3074 3068 3064 3060 3059 3055 3049 3044 3041 3038 3036 3033 3035 3033 3032 3032 3035 3037 3041 3042 3043 3043 3042 3031 3023 3021 3026 3026 3030 3035 3041 3050 3059 3067 3076
3119 3112 3105 3100 3094 3089 3088 3084 3081 3076 3072 3069 3065 3060 3055 3051 3048 3044 3037 3034 3033 3030 3032 3033 3031 3031 3033 3035 3037 3039 3043 3044 3043 3032 3022 3015 3016 3020 3024 3030 3036 3045 3054 3062 3070
3117 3109 3104 3098 3093 3090 3087 3084 3079 3075 3070 3069 3065 3060 3055 3049 3043 3039 3033 3032 3030 3029 3028 3031 3031 3030 3031 3030 3031 3036 3036 3038 3036 3031 3019 3011 3011 3017 3020 3026 3032 3041 3051 3055 3063
3116 3111 3102 3097 3095 3087 3084 3081 3077 3073 3069 3066 3061 3058 3052 3047 3039 3035 3029 3026 3024 3025 3026 3027 3027 3024 3023 3025 3026 3027 3028 3031 3031 3026 3025 3017 3008 3011 3018 3023 3029 3039 3048 3052 3061
3112 3107 3101 3096 3092 3087 3083 3079 3074 3071 3067 3063 3060 3057 3052 3044 3037 3029 3024 3022 3020 3020 3020 3023 3022 3019 3017 3019 3018 3017 3021 3024 3027 3028 3022 3016 3010 3010 3017 3021 3028 3036 3043 3050 3058
3110 3106 3099 3093 3088 3084 3079 3077 3073 3069 3064 3061 3056 3052 3048 3041 3036 3025 3020 3017 3016 3016 3017 3018 3015 3013 3009 3007 3006 3009 3013 3017 3022 3023 3021 3013 3009 3014 3017 3019 3026 3033 3037 3044 3050
3110 3106 3101 3095 3089 3082 3077 3074 3071 3066 3062 3057 3053 3051 3044 3033 3024 3019 3015 3011 3010 3010 3013 3012 3008 3009 3005 3002 3001 3002 3005 3009 3013 3016 3017 3006 3007 3011 3010 3019 3024 3025 3032 3040 3053
3112 3105 3099 3092 3086 3080 3075 3073 3068 3064 3059 3056 3052 3045 3039 3034 3029 3016 3012 3009 3007 3007 3007 3008 3004 3004 2999 2996 2993 2994 2997 3002 3008 3011 3011 3010 3007 3011 3009 3014 3019 3024 3030 3044 3055
3108 3101 3096 3090 3083 3080 3076 3070 3065 3060 3058 3052 3047 3041 3037 3032 3022 3016 3010 3008 3006 3006 3007 3006 3002 2999 2995 2992 2992 2992 2991 2996 3002 3005 3007 3005 3010 3010 3009 3016 3018 3024 3034 3043 3054